EN

Hourly Weather Eastleigh

Today, 24 July, Saturday

Time Temperature Precipitation Wind Pressure Humidity
00:00 +15°C° 0 mm 5 mps 753 mmHg 85%
01:00 +15°C° 1.9 mm 6 mps 753 mmHg 88%
02:00 +15°C° 1.9 mm 6 mps 752 mmHg 90%
03:00 +15°C° 1.9 mm 7 mps 752 mmHg 92%
04:00 +15°C° 0.8 mm 6 mps 751 mmHg 93%
05:00 +15°C° 0.8 mm 6 mps 751 mmHg 94%
06:00 +16°C° 0.8 mm 5 mps 751 mmHg 95%
07:00 +16°C° 0.1 mm 5 mps 751 mmHg 94%
08:00 +17°C° 0.1 mm 4 mps 752 mmHg 94%
09:00 +18°C° 0.1 mm 4 mps 752 mmHg 93%
10:00 +19°C° 0.1 mm 3 mps 752 mmHg 89%
11:00 +19°C° 0.1 mm 3 mps 752 mmHg 85%
12:00 +20°C° 0.1 mm 3 mps 752 mmHg 81%
13:00 +21°C° 0.2 mm 3 mps 752 mmHg 77%
14:00 +21°C° 0.2 mm 3 mps 752 mmHg 74%
15:00 +22°C° 0.2 mm 3 mps 752 mmHg 70%
16:00 +22°C° 0.1 mm 3 mps 752 mmHg 71%
17:00 +21°C° 0.1 mm 2 mps 752 mmHg 72%
18:00 +21°C° 0.1 mm 2 mps 751 mmHg 73%
19:00 +20°C° 0 mm 2 mps 752 mmHg 78%
20:00 +19°C° 0 mm 1 mps 752 mmHg 84%
21:00 +18°C° 0 mm 1 mps 752 mmHg 89%
22:00 +18°C° 0 mm 1 mps 752 mmHg 89%
23:00 +18°C° 0 mm 1 mps 752 mmHg 90%

Tomorrow, 25 July, Sunday

Time Temperature Precipitation Wind Pressure Humidity
00:00 +16°C° 0 mm 1 mps 752 mmHg 91%
01:00 +16°C° 0.1 mm 2 mps 751 mmHg 93%
02:00 +16°C° 0.1 mm 2 mps 751 mmHg 94%
03:00 +16°C° 0.1 mm 3 mps 751 mmHg 96%
04:00 +16°C° 0 mm 3 mps 751 mmHg 96%
05:00 +17°C° 0 mm 3 mps 751 mmHg 95%
06:00 +17°C° 0 mm 3 mps 751 mmHg 95%
07:00 +17°C° 0.1 mm 3 mps 751 mmHg 92%
08:00 +18°C° 0.1 mm 3 mps 752 mmHg 90%
09:00 +19°C° 0.1 mm 3 mps 752 mmHg 87%
10:00 +19°C° 0.6 mm 3 mps 752 mmHg 84%
11:00 +20°C° 0.6 mm 4 mps 752 mmHg 81%
12:00 +20°C° 0.6 mm 5 mps 752 mmHg 78%
13:00 +21°C° 0.3 mm 5 mps 752 mmHg 77%
14:00 +21°C° 0.3 mm 5 mps 752 mmHg 75%
15:00 +21°C° 0.3 mm 5 mps 752 mmHg 73%
16:00 +21°C° 0.2 mm 4 mps 752 mmHg 75%
17:00 +21°C° 0.2 mm 3 mps 752 mmHg 76%
18:00 +21°C° 0.2 mm 2 mps 752 mmHg 78%
19:00 +20°C° 0.1 mm 2 mps 753 mmHg 80%
20:00 +19°C° 0.1 mm 2 mps 753 mmHg 83%
21:00 +18°C° 0.1 mm 2 mps 753 mmHg 86%
22:00 +18°C° 0 mm 2 mps 753 mmHg 86%
23:00 +18°C° 0 mm 1 mps 754 mmHg 86%

Day after tomorrow, 26 July, Monday

Time Temperature Precipitation Wind Pressure Humidity
00:00 +18°C° 0 mm 1 mps 754 mmHg 87%
01:00 +18°C° 0 mm 1 mps 754 mmHg 86%
02:00 +17°C° 0 mm 2 mps 754 mmHg 86%
03:00 +17°C° 0 mm 2 mps 754 mmHg 86%
04:00 +17°C° 0 mm 2 mps 754 mmHg 86%
05:00 +17°C° 0 mm 2 mps 754 mmHg 86%
06:00 +17°C° 0 mm 2 mps 754 mmHg 86%
07:00 +18°C° 0 mm 2 mps 754 mmHg 79%
08:00 +20°C° 0 mm 3 mps 754 mmHg 72%
09:00 +21°C° 0 mm 3 mps 754 mmHg 65%
10:00 +22°C° 0 mm 3 mps 754 mmHg 62%
11:00 +23°C° 0 mm 4 mps 754 mmHg 59%
12:00 +25°C° 0 mm 4 mps 754 mmHg 56%
13:00 +25°C° 0.2 mm 5 mps 754 mmHg 59%
14:00 +25°C° 0.2 mm 5 mps 754 mmHg 63%
15:00 +23°C° 0.2 mm 6 mps 754 mmHg 66%
16:00 +22°C° 0.6 mm 5 mps 754 mmHg 71%
17:00 +22°C° 0.6 mm 5 mps 754 mmHg 76%
18:00 +21°C° 0.6 mm 4 mps 754 mmHg 81%
19:00 +20°C° 0.4 mm 4 mps 754 mmHg 85%
20:00 +19°C° 0.4 mm 3 mps 754 mmHg 89%
21:00 +17°C° 0.4 mm 3 mps 754 mmHg 93%
22:00 +17°C° 0.1 mm 3 mps 754 mmHg 94%
23:00 +17°C° 0.1 mm 3 mps 754 mmHg 94%

27 July, Tuesday

Time Temperature Precipitation Wind Pressure Humidity
00:00 +17°C° 0.1 mm 3 mps 754 mmHg 95%
01:00 +17°C° 0.2 mm 3 mps 754 mmHg 95%
02:00 +17°C° 0.2 mm 3 mps 754 mmHg 96%
03:00 +16°C° 0.2 mm 3 mps 753 mmHg 97%
04:00 +17°C° 0.2 mm 3 mps 753 mmHg 96%
05:00 +17°C° 0.2 mm 3 mps 753 mmHg 95%
06:00 +17°C° 0.2 mm 3 mps 753 mmHg 94%
07:00 +18°C° 0 mm 3 mps 753 mmHg 87%
08:00 +20°C° 0 mm 4 mps 754 mmHg 80%
09:00 +21°C° 0 mm 4 mps 754 mmHg 73%
10:00 +22°C° 0.2 mm 4 mps 754 mmHg 69%
11:00 +22°C° 0.2 mm 5 mps 754 mmHg 65%
12:00 +23°C° 0.2 mm 5 mps 754 mmHg 61%
13:00 +23°C° 0.1 mm 5 mps 754 mmHg 63%
14:00 +22°C° 0.1 mm 5 mps 754 mmHg 65%
15:00 +22°C° 0.1 mm 5 mps 754 mmHg 67%
16:00 +21°C° 0.1 mm 5 mps 753 mmHg 70%
17:00 +21°C° 0.1 mm 5 mps 753 mmHg 74%
18:00 +20°C° 0.1 mm 5 mps 753 mmHg 78%
19:00 +19°C° 0 mm 4 mps 753 mmHg 83%
20:00 +18°C° 0 mm 4 mps 753 mmHg 89%
21:00 +15°C° 0 mm 4 mps 753 mmHg 94%
22:00 +15°C° 0 mm 4 mps 753 mmHg 94%
23:00 +15°C° 0 mm 4 mps 753 mmHg 93%

28 July, Wednesday

Time Temperature Precipitation Wind Pressure Humidity
00:00 +15°C° 0 mm 4 mps 753 mmHg 92%
01:00 +14°C° 0 mm 4 mps 753 mmHg 93%
02:00 +13°C° 0 mm 4 mps 753 mmHg 93%
03:00 +12°C° 0 mm 3 mps 752 mmHg 94%
04:00 +13°C° 0 mm 4 mps 752 mmHg 92%
05:00 +13°C° 0 mm 4 mps 752 mmHg 91%
06:00 +14°C° 0 mm 4 mps 752 mmHg 89%
07:00 +15°C° 0.1 mm 5 mps 752 mmHg 83%
08:00 +16°C° 0.1 mm 6 mps 752 mmHg 77%
09:00 +18°C° 0.1 mm 7 mps 752 mmHg 70%
10:00 +18°C° 0.1 mm 8 mps 752 mmHg 70%
11:00 +18°C° 0.1 mm 8 mps 752 mmHg 69%
12:00 +19°C° 0.1 mm 9 mps 752 mmHg 69%
13:00 +19°C° 0.3 mm 9 mps 752 mmHg 69%
14:00 +19°C° 0.3 mm 9 mps 752 mmHg 69%
15:00 +18°C° 0.3 mm 9 mps 752 mmHg 70%
16:00 +18°C° 0.2 mm 9 mps 752 mmHg 72%
17:00 +17°C° 0.2 mm 9 mps 752 mmHg 74%
18:00 +17°C° 0.2 mm 8 mps 752 mmHg 76%
19:00 +16°C° 0 mm 7 mps 752 mmHg 78%
20:00 +15°C° 0 mm 7 mps 752 mmHg 80%
21:00 +14°C° 0 mm 6 mps 753 mmHg 83%
22:00 +14°C° 0 mm 6 mps 753 mmHg 84%
23:00 +13°C° 0 mm 6 mps 752 mmHg 84%

29 July, Thursday

Time Temperature Precipitation Wind Pressure Humidity
00:00 +13°C° 0 mm 6 mps 752 mmHg 85%
01:00 +13°C° 0.1 mm 6 mps 752 mmHg 86%
02:00 +13°C° 0.1 mm 6 mps 752 mmHg 87%
03:00 +12°C° 0.1 mm 7 mps 751 mmHg 88%
04:00 +12°C° 0.3 mm 7 mps 751 mmHg 87%
05:00 +12°C° 0.3 mm 7 mps 751 mmHg 87%
06:00 +12°C° 0.3 mm 7 mps 751 mmHg 86%
07:00 +14°C° 0.1 mm 7 mps 751 mmHg 80%
08:00 +16°C° 0.1 mm 8 mps 751 mmHg 73%
09:00 +17°C° 0.1 mm 9 mps 751 mmHg 66%
10:00 +16°C° 0.5 mm 9 mps 751 mmHg 72%
11:00 +16°C° 0.5 mm 10 mps 750 mmHg 77%
12:00 +16°C° 0.5 mm 11 mps 750 mmHg 83%
13:00 +14°C° 0.4 mm 10 mps 750 mmHg 84%
14:00 +14°C° 0.4 mm 10 mps 750 mmHg 86%
15:00 +14°C° 0.4 mm 10 mps 750 mmHg 87%
16:00 +14°C° 0.1 mm 10 mps 750 mmHg 84%
17:00 +16°C° 0.1 mm 9 mps 750 mmHg 82%
18:00 +16°C° 0.1 mm 9 mps 751 mmHg 79%
19:00 +15°C° 0 mm 8 mps 751 mmHg 80%
20:00 +15°C° 0 mm 7 mps 752 mmHg 80%
21:00 +14°C° 0 mm 6 mps 753 mmHg 80%
22:00 +13°C° 0 mm 6 mps 753 mmHg 85%
23:00 +13°C° 0 mm 5 mps 753 mmHg 90%
Show more